This is the latest recevied weather packets stored in our database for station/object N1ORT. If no packets are shown the sender has not sent any weather packets the latest 10 day(s).
| Time | Temp. | Humidity | Pressure | Rain* | Wind** | Luminosity | Snow |
|---|---|---|---|---|---|---|---|
| 1787834492 | 21.11° C | 90% | 1016.5 hPa | 0 mm | - | 317 W/m² | - |
| 1787834188 | 21.11° C | 90% | 1016.4 hPa | 0 mm | - | 290 W/m² | - |
| 1787833884 | 20° C | 93% | 1016.4 hPa | 0 mm | - | 181 W/m² | - |
| 1787833584 | 20° C | 95% | 1016.4 hPa | 0 mm | - | 68 W/m² | - |
| 1787833280 | 19.44° C | 96% | 1016.3 hPa | 0 mm | - | 76 W/m² | - |
| 1787832977 | 18.89° C | 98% | 1016.7 hPa | 0 mm | - | 70 W/m² | - |
| 1787832671 | 18.33° C | 99% | 1016.8 hPa | 0 mm | - | 68 W/m² | - |
| 1787832370 | 18.33° C | 99% | 1016.8 hPa | 0 mm | - | 62 W/m² | - |
| 1787832064 | 17.78° C | 99% | 1016.4 hPa | 0 mm | - | 49 W/m² | - |
| 1787831763 | 17.78° C | 99% | 1016.5 hPa | 0 mm | - | 45 W/m² | - |
| 1787831462 | 17.78° C | 99% | 1016.5 hPa | 0 mm | - | 43 W/m² | - |
| 1787831161 | 17.22° C | 99% | 1016.5 hPa | 0 mm | - | 40 W/m² | - |
| 1787830858 | 17.22° C | 99% | 1016.7 hPa | 0 mm | - | 40 W/m² | - |
| 1787830557 | 17.22° C | 99% | 1016.8 hPa | 0 mm | - | 39 W/m² | - |
| 1787830257 | 16.67° C | 99% | 1016.7 hPa | 0 mm | - | 38 W/m² | - |
| 1787829951 | 16.67° C | 99% | 1016.8 hPa | 0 mm | - | 35 W/m² | - |
| 1787829651 | 16.67° C | 99% | 1016.4 hPa | 0 mm | - | 32 W/m² | - |
| 1787829346 | 16.67° C | 99% | 1016.7 hPa | 0 mm | - | 30 W/m² | - |
| 1787829042 | 16.11° C | 99% | 1016.5 hPa | 0 mm | - | 30 W/m² | - |
| 1787828738 | 16.11° C | 99% | 1016.5 hPa | 0 mm | - | 29 W/m² | - |
| 1787828434 | 16.11° C | 99% | 1016.5 hPa | 0 mm | - | 28 W/m² | - |
| 1787828132 | 16.11° C | 99% | 1016.5 hPa | 0 mm | - | 24 W/m² | - |
| 1787827832 | 16.11° C | 99% | 1016.7 hPa | 0 mm | - | 21 W/m² | - |
| 1787827527 | 16.11° C | 99% | 1016.7 hPa | 0 mm | - | 14 W/m² | - |
| 1787827227 | 16.11° C | 99% | 1016.4 hPa | 0 mm | - | 10 W/m² | - |
* Rain latest hour (hover to see other rain measurements)
** Current wind speed in m/s (hover to see current wind gust speed)